Voltar ao catálogo

SL-8 R/B

AtivoLEO
NORAD 14760·ROCKET BODY·🇷🇺 Russia

Lançado Feb 21, 1984 de Plesetsk Cosmodrome

Loading…

Próximas Passagens (próximas 24 horas)

TLE

AtualizadoSource: Space-Track

Época: Sep 14, 2026, 10:01 UTC

1 14760U 84019B   26257.41777045  .00000066  00000-0  30972-4 0  9994
2 14760  74.0429  44.2991 0027058 156.3868 203.8535 14.37240684228089

Acompanhe SL-8 R/B em tempo real com AllMySat

Download on the App Store